Cloud_Cover
4 0 0 0 0 5 5 5 5 5 4 0 0 0 0 0 0 0 0 0 0 0
5 4 0 5 5 5 5 5 5 5 5 13 5 5 3 0 0 0 0 0 0 0
1 5 0 1 5 5 5 5 5 24 10 5 7 5 3 4 5 0 0 0 0 0
5 18 0 0 7 0 5 5 6 42 80 96 58 6 5 5 3 3 5 1 0 0
5 5 0 2 5 0 0 5 5 5 8 56 100 98 93 100 97 10 5 0 0 0
6 5 0 0 0 0 0 0 5 4 0 0 3 4 2 4 20 5 5 4 5 0
17 1 0 0 1 5 5 5 5 5 5 5 4 4 1 0 0 0 0 1 1 5
2 0 0 0 0 0 0 0 0 0 0 1 5 5 22 8 5 5 4 9 88 14
0 0 0 0 0 0 0 0 0 0 0 0 0 0 2 5 8 18 22 7 37 100
0 0 0 0 0 0 0 0 1 4 5 5 5 5 5 5 5 6 32 82 5 97
0 0 0 0 0 2 5 5 5 5 5 5 5 5 5 5 50 5 5 45 75 60
0 0 0 4 5 5 24 62 61 52 5 42 83 46 5 100 100 73 47 86 53 91
0 5 5 5 19 40 82 100 100 100 100 100 100 100 6 70 100 100 100 97 70 88
5 5 5 5 5 5 83 97 100 95 100 100 100 100 83 9 77 100 100 100 100 100